KGRR-WX Weather Reports


Display with metric or nautical units.
time (UTC)temp
F
wind
direction
speed
MPH
gust
MPH
rain 1hr
in
rain 24hr
in
rain mn
in
humidity
%
barometer
mb
20260509053015 44 160 7.0 0.0 0.00 0.00 0.00 51 977.8
20260509051505 45 162 5.0 0.0 0.00 0.00 0.00 51 977.8
20260509050028 45 167 5.0 0.0 0.00 0.00 0.00 51 977.8
20260509044506 45 161 5.0 0.0 0.00 0.00 0.00 49 978.9
20260509043015 46 169 5.0 0.0 0.00 0.00 0.00 48 977.6
20260509041506 47 169 6.0 0.0 0.00 0.00 0.00 48 977.6
20260509040026 47 163 6.0 0.0 0.00 0.00 0.00 48 977.6
20260509034506 47 178 6.0 0.0 0.00 0.00 0.00 43 978.3
20260509033015 47 180 5.0 0.0 0.00 0.00 0.00 39 979.0
20260509031505 48 166 5.0 0.0 0.00 0.00 0.00 39 979.0
20260509030026 48 162 5.0 0.0 0.00 0.00 0.00 39 979.0
20260509024505 49 162 5.0 0.0 0.00 0.00 0.00 30 979.6
20260509023021 50 175 5.0 0.0 0.00 0.00 0.00 32 979.4
20260509021505 50 191 5.0 0.0 0.00 0.00 0.00 32 979.3
20260509020025 51 195 6.0 0.0 0.00 0.00 0.00 32 979.3
20260509014505 51 201 5.0 0.0 0.00 0.00 0.00 33 979.4
20260509013013 52 217 4.0 0.0 0.00 0.00 0.00 33 979.4
20260509011505 53 232 3.0 0.0 0.00 0.00 0.00 33 979.4
20260509010023 54 242 4.0 0.0 0.00 0.00 0.00 33 979.4
20260509004505 54 245 4.0 0.0 0.00 0.00 0.00 25 979.2
20260509003020 55 248 4.0 0.0 0.00 0.00 0.00 27 980.4
20260509001504 57 256 4.0 0.0 0.00 0.00 0.00 27 980.4
20260509000023 58 259 5.0 0.0 0.00 0.00 0.00 27 980.4
20260508234504 59 260 7.0 0.0 0.00 0.00 0.00 22 979.7
20260508233022 60 263 8.0 0.0 0.00 0.00 0.00 22 980.1
20260508231506 60 260 9.0 0.0 0.00 0.00 0.00 22 980.1
20260508230025 60 264 9.0 0.0 0.00 0.00 0.00 22 980.1
20260508224505 61 265 10.0 0.0 0.00 0.00 0.00 22 980.3
20260508223022 60 265 11.0 0.0 0.00 0.00 0.00 21 981.1
20260508221507 61 265 11.0 0.0 0.00 0.00 0.00 21 981.1
20260508220019 61 262 11.0 0.0 0.00 0.00 0.00 21 981.1
20260508214507 61 262 11.0 0.0 0.00 0.00 0.00 21 981.7
20260508213022 61 259 12.0 0.0 0.00 0.00 0.00 22 981.1
20260508211506 62 255 11.0 0.0 0.00 0.00 0.00 22 981.1
20260508210026 62 256 11.0 0.0 0.00 0.00 0.00 22 981.1
20260508204507 62 253 11.0 0.0 0.00 0.00 0.00 23 981.2
20260508203022 62 249 11.0 0.0 0.00 0.00 0.00 21 981.0
20260508201506 62 250 10.0 0.0 0.00 0.00 0.00 21 981.0
20260508200019 62 249 10.0 0.0 0.00 0.00 0.00 19 980.6
20260508194506 62 248 10.0 0.0 0.00 0.00 0.00 19 981.3
20260508193014 62 248 10.0 0.0 0.00 0.00 0.00 19 981.3
20260508191505 63 250 10.0 0.0 0.00 0.00 0.00 19 981.3
20260508190024 62 248 9.0 0.0 0.00 0.00 0.00 19 981.3
20260508184506 62 249 9.0 0.0 0.00 0.00 0.00 23 981.6
20260508183022 62 247 10.0 0.0 0.00 0.00 0.00 25 981.3
20260508181506 62 243 10.0 0.0 0.00 0.00 0.00 25 981.3
20260508180024 61 243 10.0 0.0 0.00 0.00 0.00 25 981.3
20260508174506 61 241 10.0 0.0 0.00 0.00 0.00 30 982.3
20260508173022 60 246 10.0 0.0 0.00 0.00 0.00 30 982.3
20260508171506 60 243 10.0 0.0 0.00 0.00 0.00 30 982.3
20260508170025 59 246 9.0 0.0 0.00 0.00 0.00 29 982.3
20260508164506 59 247 9.0 0.0 0.00 0.00 0.00 37 982.8
20260508163022 58 239 9.0 0.0 0.00 0.00 0.00 37 982.9
20260508161506 57 234 9.0 0.0 0.00 0.00 0.00 37 982.8
20260508160026 56 230 8.0 0.0 0.00 0.00 0.00 37 982.8
20260508154506 55 220 7.0 0.0 0.00 0.00 0.00 43 983.9
20260508153023 55 203 8.0 0.0 0.00 0.00 0.00 44 982.7
20260508151506 54 195 7.0 0.0 0.00 0.00 0.00 44 982.7
20260508150025 53 197 7.0 0.0 0.00 0.00 0.00 44 982.7
20260508144507 52 194 6.0 0.0 0.00 0.00 0.00 59 983.0
20260508143015 51 193 5.0 0.0 0.00 0.00 0.00 57 983.0
20260508141507 50 190 5.0 0.0 0.00 0.00 0.00 57 983.0
20260508140026 49 191 4.0 0.0 0.00 0.00 0.00 61 982.9
20260508134506 48 190 5.0 0.0 0.00 0.00 0.00 72 982.7
20260508133015 47 191 5.0 0.0 0.00 0.00 0.00 72 982.7
20260508131507 45 190 6.0 0.0 0.00 0.00 0.00 72 982.7
20260508130026 43 184 6.0 0.0 0.00 0.00 0.00 72 982.7
20260508124506 42 180 5.0 0.0 0.00 0.00 0.00 83 982.2
20260508123016 42 188 4.0 0.0 0.00 0.00 0.00 82 982.5
20260508121506 40 184 3.0 0.0 0.00 0.00 0.00 82 982.5
20260508120029 39 167 2.0 0.0 0.00 0.00 0.00 82 982.5
20260508114506 37 163 2.0 0.0 0.00 0.00 0.00 82 982.1
20260508113024 36 160 2.0 0.0 0.00 0.00 0.00 79 982.8
20260508111506 36 143 3.0 0.0 0.00 0.00 0.00 79 982.8
20260508110019 35 137 3.0 0.0 0.00 0.00 0.00 79 982.8
20260508104509 35 129 3.0 0.0 0.00 0.00 0.00 78 981.9
20260508103023 35 114 2.0 0.0 0.00 0.00 0.00 77 982.9
20260508101509 36 110 2.0 0.0 0.00 0.00 0.00 77 982.9
20260508100019 36 110 2.0 0.0 0.00 0.00 0.00 77 982.9
20260508094508 36 95 2.0 0.0 0.00 0.00 0.00 78 982.2
20260508093015 36 129 3.0 0.0 0.00 0.00 0.00 81 983.0
20260508091508 36 157 2.0 0.0 0.00 0.00 0.00 81 983.0
20260508090025 36 158 3.0 0.0 0.00 0.00 0.00 81 983.0
20260508084508 37 170 3.0 0.0 0.00 0.00 0.00 74 982.6
20260508083023 37 166 3.0 0.0 0.00 0.00 0.00 75 982.3
20260508081508 37 164 3.0 0.0 0.00 0.00 0.00 75 982.3
20260508080026 38 163 3.0 0.0 0.00 0.00 0.00 75 982.3
20260508074508 38 167 3.0 0.0 0.00 0.00 0.00 67 983.0
20260508073023 38 171 4.0 0.0 0.00 0.00 0.00 67 983.0
20260508071507 39 180 4.0 0.0 0.00 0.00 0.00 67 983.0
20260508070026 39 177 4.0 0.0 0.00 0.00 0.00 67 983.0
20260508064507 39 161 4.0 0.0 0.00 0.00 0.00 69 982.8
20260508063015 40 135 2.0 0.0 0.00 0.00 0.00 78 983.3
20260508061508 41 135 2.0 0.0 0.00 0.00 0.00 78 983.3
20260508060027 41 138 2.0 0.0 0.00 0.00 0.00 78 983.3
20260508054507 40 126 3.0 0.0 0.00 0.00 0.00 70 983.9